Home   Weather   Renens   Past weeks

Flag for Switzerland Past Weather in Renens, Vaud, Switzerland — Yesterday and Last 2 Weeks

Now
72 °F

Partly sunny.


Feels Like: 77 °F
Forecast: 60 / 77 °F
Wind: 5 mph from North

Location: Aigle

Current Time: May 23, 2017 at 8:51:59 pm

Latest Report: May 23, 2017 at 8:00 pm


Visibility: 19 mi

Pressure: 30.09 "Hg

Humidity: 50%

Dew Point: 53 °F

Location of RenensLocation

Past Weather in Renens — Graph

°F

Renens Temperature Yesterday

Maximum temperature yesterday: 74 °F (at 6:00 pm)
Minimum temperature yesterday: 45 °F (at 5:00 am)
Average temperature yesterday: 61 °F

High & Low Weather Summary for the Past Weeks

 TemperatureHumidityPressure
High79 °F (May 17, 5:00 pm)100% (May 20, 5:00 am)30.41 "Hg (May 20, 5:00 am)
Low38 °F (May 10, 5:00 am)37% (May 22, 7:00 pm)29.44 "Hg (May 11, 3:00 pm)
Average58 °F75%30.03 "Hg
* Reported May 8 7:00 pm — May 23 7:00 pm, Renens. Weather by CustomWeather, © 2017

Note: Actual official high and low records may vary slightly from our data, if they occured in-between our weather recording intervals... More about our weather records

Advertising

Renens Weather History for the Previous 24 Hours

Scroll right to see more
 ConditionsComfort  
Time TempWeatherWind HumidityBarometerVisibility
7:00 pm
Tue, May 23
77 °FPleasantly warm.9 mph39%30.06 "HgN/A
6:00 pm77 °FWarm.10 mph40%30.06 "HgN/A
5:00 pm77 °FPartly sunny.12 mph39%30.06 "Hg19 mi
4:00 pm78 °FPleasantly warm.10 mph39%30.05 "HgN/A
3:00 pm75 °FMild.10 mph40%30.07 "HgN/A
2:00 pm74 °FPartly sunny.10 mph42%30.09 "Hg19 mi
1:00 pm72 °FMild.9 mph52%30.10 "HgN/A
12:00 pm69 °FMild.7 mph57%30.11 "HgN/A
11:00 am68 °FPartly sunny.2 mph60%30.12 "Hg22 mi
10:00 am63 °FMild.3 mph61%30.15 "HgN/A
9:00 am61 °FCool.1 mph72%30.14 "HgN/A
8:00 am57 °FOvercast.1 mph82%30.14 "Hg19 mi
7:00 am51 °FCool.3 mph85%30.14 "HgN/A
6:00 am47 °FCool.1 mph92%30.14 "HgN/A
5:00 am50 °FPassing clouds.1 mph86%30.12 "Hg16 mi
4:00 am51 °FCool.1 mph85%30.12 "HgN/A
3:00 am54 °FCool.3 mph76%30.11 "HgN/A
2:00 am54 °FCool.3 mph80%30.10 "HgN/A
1:00 am55 °FCool.1 mph78%30.09 "HgN/A
12:00 am58 °FCool.3 mph72%30.08 "HgN/A
11:00 pm
Mon, May 22
62 °FCool.2 mph62%30.05 "HgN/A
10:00 pm61 °FCool.2 mph71%30.03 "HgN/A
9:00 pm65 °FMild.1 mph56%30.01 "HgN/A
8:00 pm72 °FMild.No wind44%29.98 "HgN/A
Weather by CustomWeather, © 2017

See weather overviewHow to use our weather pages